Regional Weather Roundup
Issued by NWS

Home | Current Version | Previous Version | Graphics & Text | Print | Product List | Glossary On
Versions: 1 2 3 4 5 6 7 8 9 10 11 12 13 14 15 16 17 18 19 20 21 22 23 24 25 26 27
000
ASUS45 KCYS 232110
RWRWY

WYOMING REGIONAL WEATHER ROUNDUP
NATIONAL WEATHER SERVICE CHEYENNE WY
300 PM MDT THU OCT 23 2014

NOTE:  "FAIR" INDICATES FEW OR NO CLOUDS BELOW 12,000 FEET
WITH NO SIGNIFICANT WEATHER AND/OR OBSTRUCTIONS TO VISIBILITY.

WYZ001-232200-
YELLOWSTONE NATIONAL PARK

CITY           SKY/WX    TMP DP  RH WIND       PRES   REMARKS
LK YELLOWSTONE   N/A     48  24  39 VRB6      30.16
W YELLOWSTONE  NOT AVBL

$$
WYZ002>013-054>058-071-098>099-232200-
NORTHERN WYOMING

CITY           SKY/WX    TMP DP  RH WIND       PRES   REMARKS
JACKSON        PTSUNNY   57  27  30 MISG      30.13S
CODY           PTSUNNY   70  27  19 W17G24    29.94
GREYBULL       PTSUNNY   66  25  21 CALM      29.91F
WORLAND        MOSUNNY   72  26  18 W3        29.91F
SHERIDAN       MOSUNNY   71  30  21 N6        29.89F
BUFFALO        MOSUNNY   69  21  16 NE6       29.96R
GILLETTE       MOSUNNY   70  25  18 NW7       29.93S
HULETT         FAIR      64  28  25 SW8       29.94
NEWCASTLE      FAIR      64  23  20 N3        29.95

$$
WYZ014>020-022>026-101>103-232200-
CENTRAL WYOMING

CITY           SKY/WX    TMP DP  RH WIND       PRES   REMARKS
BIG PINEY      MOSUNNY   60  24  25 NW5       30.16F
PINEDALE       PTCLDY    57  27  30 CALM      30.18F
DUBOIS         FAIR      57  19  23 W32G43    30.07S HAZE
LANDER         MOSUNNY   63  29  27 VRB3      30.00F
RIVERTON       SUNNY     64  25  22 VRB6      30.01F
CASPER         MOSUNNY   67  23  19 SW28G38   30.02S
DOUGLAS        SUNNY     73  24  16 W26G37    30.01F

$$
WYZ021-027>030-104>119-232200-
SOUTHERN WYOMING

CITY           SKY/WX    TMP DP  RH WIND       PRES   REMARKS
EVANSTON       MOSUNNY   66  22  18 W24G31    30.18F
KEMMERER       MOCLDY    61  23  23 W22G29    30.18F
FORT BRIDGER   FAIR      69  23  17 W23G31    30.19F
ROCK SPRINGS   MOSUNNY   63  25  23 W10       30.16F
DIXON          FAIR      66  31  27 SW17G28   30.22S
RAWLINS        CLOUDY    60  28  29 SW18G25   30.16F
SARATOGA       FAIR      61  30  31 W21       30.20S
LARAMIE        PTSUNNY   61  26  26 W14       30.17F
CHEYENNE       MOSUNNY   69  28  21 W18       30.12F
TORRINGTON     MOSUNNY   75  30  19 W23G30    29.98F
PINE BLUFFS    FAIR      70  32  24 S13       30.08F

$$



USA.gov is the U.S. government's official web portal to all federal, state and local government web resources and services.